Regional Weather Roundup
Issued by NWS Spokane, WA

Home | Current Version | Previous Version | Text Only | Print | Product List | Glossary On
Versions: 1 2 3 4 5 6 7 8 9 10 11 12 13 14 15 16 17 18 19 20 21 22 23 24 25 26 27 28 29 30 31 32 33 34 35 36 37 38 39 40 41 42 43 44 45 46 47 48 49 50
142
NZUS01 KOTX 290010
RWROTX
EASTERN WASHINGTON/NORTHERN IDAHO ROUNDUP
NATIONAL WEATHER SERVICE, SPOKANE WA
500 PM PDT THU APR 28 2016

Note: "fair" indicated few or no clouds below 12,000 feet with no
significant weather and/or obstructions to visibility.

...NORTHEAST WASHINGTON AND NORTHERN IDAHO PANHANDLE...

CITY           SKY/WX    TMP DP  RH WIND       PRES   REMARKS
SPOKANE INTL   PTSUNNY   63  32  31 E9        29.93S
SPOKANE DOWNTO MOSUNNY   67  34  29 E14       29.93F
COEUR D ALENE  PTSUNNY   63  36  36 E8        29.92S
DEER PARK      MOSUNNY   65  33  30 NE7G18    29.94S
SANDPOINT      CLOUDY    59  34  38 NE12      29.97S

...SOUTHEAST WASHINGTON AND SOUTHERN IDAHO PANHANDLE...

CITY           SKY/WX    TMP DP  RH WIND       PRES   REMARKS
WALLA WALLA    SUNNY     66  40  38 N3        29.93F
PULLMAN/MOSCOW CLOUDY    56  42  59 E13       29.95F
LEWISTON       CLOUDY    60  44  55 SE9       29.93F
LOWELL           N/A     59  41  51 SE7       29.92S

...COLUMBIA BASIN...

CITY           SKY/WX    TMP DP  RH WIND       PRES   REMARKS
EPHRATA        PTSUNNY   68  42  38 SW8       29.90S
MOSES LAKE     MOSUNNY   71  40  32 VRB7      29.90F
TRI CITIES     SUNNY     73  39  29 VRB3      29.91F
HERMISTON      SUNNY     70  39  32 SW3       29.91F
PENDLETON      SUNNY     66  36  32 NW8       29.93F

...EAST SLOPES CASCADES...

CITY           SKY/WX    TMP DP  RH WIND       PRES   REMARKS
THE DALLES     SUNNY     67  40  37 NW20G25   29.99S
YAKIMA         CLOUDY    73  36  25 E5        29.91F
ELLENSBURG     CLOUDY    65  42  43 NW24G31   29.94S
STAMPEDE PASS  CLOUDY    41  36  82 VRB5      30.06S
WENATCHEE      MOSUNNY   72  37  28 W13       29.89F
OMAK           PTSUNNY   67  39  35 NW16      29.89S

...SOUTHERN BRITISH COLUMBIA...

CITY           SKY/WX    TMP DP  RH WIND       PRES   REMARKS
CASTLEGAR      PTSUNNY   64  43  45 CALM      29.88S
CRANBROOK      PTSUNNY   57  30  35 NE6       29.98F

...WESTERN MONTANA...

CITY           SKY/WX    TMP DP  RH WIND       PRES   REMARKS
MISSOULA       CLOUDY    49  29  46 E14       30.02S

...NEIGHBORING CITIES...

CITY           SKY/WX    TMP DP  RH WIND       PRES   REMARKS
SEATTLE        CLOUDY    61  41  47 SW7       30.09F
CALGARY        CLOUDY    50  30  46 S21G26    30.07F



USA.gov is the U.S. government's official web portal to all federal, state and local government web resources and services.